Find Starlink 35686

NORAD ID: 66407 Int'l Des: 2025-257 Owner: SPXS Country: US Constellation: starlink operational
LEOCIRCULAR

Current View

Loading 3D Globe...

About Starlink 35686

Description loading...

Upcoming Passes

Passes for default location (London). Set your location on the main map for personalized predictions.

Altitude History

Loading altitude history...

Two-Line Element Set

1 66407U 25257AD 26145.93056452 .00018220 00000-0 54888-3 0 9995
2 66407 53.1611 217.2322 0000249 343.1652 16.9342 15.34410597 31570
Epoch: May 25, 2026 • Age: 13 hours

Current Status

Altitude 463.7 km
Velocity 7.64 km/s
Sub-Earth Point -0.34°S, 23.49°W
Launch Date Nov 9, 2025
Age 0.5 years
Type internet

Technical Details

Classification Payload
Mass 575.00 kg
Dry Mass 530.00 kg
Total Mass 575.00 kg
Length 0.30 m
Diameter 4.10 m
Span 29.00 m
Shape Box + pan
Manufacturer SPXS
Bus Type Starlink V2MO
Phase Status In Orbit
Owner/State SPXS/US

Most Searched